Home   Weather   Bath   Past weeks

Flag for United Kingdom Past Weather in Bath, England, United Kingdom — Yesterday and Last 2 Weeks

Now
45 °F

Sleet. Passing clouds.


Feels Like: 39 °F
Forecast: 43 / 63 °F
Wind: 10 mph from East

Location: Bristol / Lulsgate

Current Time: May 1, 2017 at 5:53:29 am

Latest Report: May 1, 2017 at 5:20 am


Visibility: 6 mi

Pressure: 29.47 "Hg

Humidity: 100%

Dew Point: 45 °F

Location of BathLocation

Past Weather in Bath — Graph

°F

Bath Temperature Yesterday

Maximum temperature yesterday: 59 °F (at 11:50 am)
Minimum temperature yesterday: 48 °F (at 12:20 am)
Average temperature yesterday: 51 °F

High & Low Weather Summary for the Past Weeks

 TemperatureHumidityPressure
High59 °F (Apr 22, 1:50 pm)100% (Apr 16, 4:20 am)30.63 "Hg (Apr 16, 4:20 am)
Low34 °F (Apr 19, 4:50 am)38% (Apr 19, 3:20 pm)29.42 "Hg (Apr 30, 10:50 pm)
Average48 °F74%30.18 "Hg
* Reported Apr 16 4:20 am — May 1 4:20 am, Bath, Weather by CustomWeather, © 2017

Note: Actual official high and low records may vary slightly from our data, if they occured in-between our weather recording intervals... More about our weather records

Advertising

Bath Weather History for the Previous 24 Hours

Scroll right to see more
 ConditionsComfort  
Time TempWeatherWind HumidityBarometerVisibility
4:20 am
Mon, May 1
45 °FPassing clouds.12 mph100%29.47 "HgN/A
3:50 am46 °FMostly cloudy.9 mph100%29.45 "HgN/A
3:20 am46 °FPassing clouds.7 mph100%29.45 "HgN/A
2:50 am46 °FPassing clouds.6 mph100%29.45 "HgN/A
2:20 am46 °FPassing clouds.6 mph100%29.45 "HgN/A
1:20 am48 °FPassing clouds.12 mph94%29.45 "HgN/A
12:50 am48 °FPartly cloudy.10 mph100%29.42 "HgN/A
11:50 pm
Sun, Apr 30
48 °FLight rain. Passing clouds.9 mph100%29.42 "Hg2 mi
11:20 pm48 °FRain. Low clouds.6 mph100%29.42 "Hg1 mi
10:50 pm48 °FDrizzle. Mostly cloudy.6 mph100%29.42 "Hg1 mi
10:20 pm48 °FRain. Mostly cloudy.6 mph100%29.45 "Hg1 mi
9:50 pm48 °FHeavy rain. Overcast.5 mph100%29.45 "Hg1 mi
9:20 pm48 °FRain. Passing clouds.7 mph100%29.45 "Hg2 mi
8:50 pm48 °FDrizzle. Fog.7 mph100%29.45 "Hg1 mi
8:20 pm48 °FDrizzle. Fog.6 mph100%29.45 "Hg2 mi
7:50 pm48 °FDrizzle. Fog.6 mph100%29.45 "Hg1 mi
7:20 pm48 °FDrizzle. Fog.8 mph94%29.45 "Hg2 mi
6:50 pm50 °FLight rain. Overcast.9 mph88%29.45 "Hg4 mi
6:20 pm50 °FOvercast.10 mph82%29.45 "HgN/A
5:50 pm50 °FMostly cloudy.10 mph82%29.45 "HgN/A
5:20 pm50 °FOvercast.13 mph82%29.45 "HgN/A
4:50 pm50 °FOvercast.13 mph82%29.45 "HgN/A
4:20 pm50 °FMostly cloudy.13 mph82%29.45 "HgN/A
3:50 pm52 °FMostly cloudy.14 mph77%29.45 "HgN/A
3:20 pm52 °FBroken clouds.13 mph77%29.45 "HgN/A
2:50 pm52 °FLight rain. More clouds than sun.12 mph77%29.45 "HgN/A
2:20 pm54 °FBroken clouds.15 mph72%29.45 "HgN/A
1:50 pm55 °FPassing clouds.16 mph63%29.45 "HgN/A
1:20 pm55 °FScattered clouds.18 mph63%29.45 "HgN/A
12:50 pm57 °FScattered clouds.18 mph55%29.45 "HgN/A
12:20 pm57 °FScattered clouds.20 mph51%29.45 "HgN/A
11:50 am59 °FRefreshingly cool.18 mph51%29.45 "HgN/A
11:20 am55 °FRefreshingly cool.16 mph59%29.45 "HgN/A
10:50 am55 °FRefreshingly cool.20 mph59%29.47 "HgN/A
10:20 am54 °FCool.16 mph63%29.47 "HgN/A
9:50 am52 °FCool.20 mph67%29.47 "HgN/A
9:20 am52 °FCool.20 mph67%29.50 "HgN/A
8:50 am52 °FCool.18 mph67%29.50 "HgN/A
8:20 am52 °FCool.21 mph67%29.50 "HgN/A
7:50 am50 °FCool.18 mph71%29.53 "HgN/A
7:20 am48 °FCool.17 mph76%29.53 "HgN/A
6:50 am48 °FCool.16 mph76%29.56 "HgN/A
6:20 am48 °FCool.17 mph76%29.56 "HgN/A
5:50 am48 °FCool.14 mph71%29.56 "HgN/A
5:20 am48 °FCool.14 mph71%29.56 "HgN/A
Weather by CustomWeather, © 2017

See weather overviewHow to use our weather pages